Cosmos 1802 Rocket - Orbit

View from above orbital plane
View from above orbital plane
View from above satellite
View from above satellite

Ground track
Ground track

The orbit data is extracted from the following two-line orbital elements,

1 17160U 86093B   13142.86274747  .00000048  00000-0  35030-4 0  9590
2 17160 082.9285 086.8453 0038108 332.1049 080.3218 13.74461546328687
Epoch (UTC): 22 May 2013 20:42:21
Eccentricity: 0.0038108
inclination: 82.9285°
perigee height: 955 km
apogee height: 1011 km
right ascension of ascending node: 86.8453°
argument of perigee: 332.1049°
revolutions per day: 13.74461546
mean anomaly at epoch: 80.3218°
orbit number at epoch: 32868

The dashed part of the orbit path shows where the satellite is in the earth's shadow,  

Developed and maintained by Chris Peat, Heavens-Above GmbH. Please read the updated FAQ before sending e-mail. Imprint. DLR